Total_Precipitation_Accumulation
3.27 3.29 3.20 3.32 3.32 3.32 3.15 2.94 2.79 2.72 2.58 2.40 2.29 2.35 2.35 2.27 2.23 2.25 2.16 2.26 2.37 2.44 2.49 2.60 2.68 2.78 2.93 2.97 3.04 3.06 3.14 3.20 3.06 2.58 2.43 2.41 2.40 2.34 2.40 2.29 2.24 2.23 2.03
2.94 3.10 3.21 3.27 3.21 3.10 2.84 2.69 2.59 2.45 2.31 2.27 2.25 2.30 2.29 2.21 2.21 2.12 1.99 2.08 2.23 2.32 2.36 2.44 2.45 2.55 2.67 2.61 2.71 2.74 2.80 2.94 2.92 2.80 2.72 2.60 2.55 2.48 2.37 2.21 1.97 1.74 1.69
2.68 2.69 2.87 2.94 2.84 2.76 2.66 2.56 2.47 2.32 2.25 2.27 2.29 2.28 2.28 2.25 2.24 2.18 2.13 2.09 2.03 2.02 2.11 2.14 2.18 2.28 2.25 2.18 2.20 2.20 2.30 2.43 2.70 2.70 2.57 2.68 2.58 2.55 2.65 2.31 2.07 2.04 1.56
2.62 2.77 2.83 2.79 2.68 2.57 2.42 2.25 2.15 2.08 2.12 2.21 2.17 2.12 2.10 2.02 1.93 1.98 2.01 1.97 1.87 1.81 1.80 1.80 1.77 1.75 1.76 1.81 1.81 1.89 2.05 2.37 2.62 2.60 2.40 2.36 2.39 2.36 2.61 2.46 2.33 2.21 1.89
2.59 2.61 2.56 2.52 2.46 2.42 2.36 2.22 2.09 1.96 1.87 1.99 1.97 1.91 1.85 1.73 1.60 1.64 1.71 1.70 1.75 1.71 1.67 1.63 1.55 1.56 1.60 1.56 1.45 1.64 1.93 2.25 2.40 2.44 2.36 2.24 2.17 2.23 2.29 2.18 2.17 2.21 2.09
2.30 2.34 2.28 2.26 2.37 2.39 2.34 2.21 2.10 1.98 1.88 1.86 1.84 1.73 1.61 1.39 1.41 1.44 1.43 1.51 1.62 1.70 1.66 1.54 1.46 1.46 1.42 1.35 1.32 1.42 1.60 1.81 2.01 2.16 2.15 2.11 2.08 2.11 2.21 2.22 2.25 2.33 2.20
2.17 2.12 2.14 2.14 2.13 2.17 2.06 1.96 1.97 1.99 1.86 1.73 1.64 1.55 1.43 1.35 1.35 1.29 1.33 1.41 1.52 1.60 1.62 1.63 1.41 1.23 1.36 1.33 1.36 1.39 1.39 1.47 1.64 1.88 2.00 1.94 2.01 2.11 2.34 2.31 2.37 2.40 2.25
2.10 1.97 1.91 1.91 1.88 1.90 1.93 1.93 1.91 1.92 1.84 1.71 1.58 1.49 1.43 1.30 1.29 1.24 1.26 1.31 1.47 1.51 1.51 1.54 1.57 1.51 1.42 1.44 1.41 1.39 1.32 1.36 1.46 1.55 1.73 1.79 1.79 1.95 2.22 2.24 2.30 2.34 2.23
1.82 1.76 1.68 1.66 1.72 1.76 1.78 1.88 1.91 1.84 1.79 1.67 1.56 1.54 1.50 1.35 1.29 1.21 1.29 1.37 1.47 1.45 1.38 1.37 1.35 1.33 1.36 1.43 1.49 1.54 1.49 1.43 1.28 1.34 1.40 1.53 1.66 1.78 1.93 2.04 2.21 2.44 2.39
1.74 1.71 1.61 1.58 1.63 1.67 1.69 1.76 1.74 1.75 1.76 1.66 1.59 1.59 1.54 1.49 1.35 1.22 1.31 1.34 1.36 1.38 1.43 1.38 1.28 1.17 1.15 1.15 1.21 1.45 1.59 1.50 1.40 1.40 1.51 1.65 1.75 1.83 1.86 1.92 2.12 2.33 2.37
1.58 1.66 1.70 1.67 1.64 1.66 1.67 1.70 1.70 1.69 1.74 1.73 1.69 1.70 1.68 1.57 1.42 1.26 1.27 1.27 1.26 1.30 1.32 1.29 1.23 1.09 0.95 0.96 1.07 1.27 1.40 1.42 1.52 1.76 1.96 1.99 1.98 1.95 1.86 1.81 1.98 2.15 2.25
1.62 1.77 1.77 1.78 1.64 1.59 1.78 1.80 1.73 1.71 1.69 1.74 1.76 1.73 1.69 1.62 1.41 1.24 1.17 1.13 1.15 1.18 1.24 1.24 1.18 1.10 0.94 0.95 1.03 1.16 1.25 1.38 1.61 1.91 2.06 2.01 1.79 1.64 1.66 1.68 1.77 1.92 2.01
1.78 1.83 1.86 1.76 1.75 1.72 1.77 1.79 1.73 1.71 1.63 1.60 1.59 1.60 1.56 1.47 1.33 1.19 1.13 1.07 1.08 1.07 1.09 1.15 1.12 1.11 1.10 1.12 1.14 1.18 1.26 1.45 1.67 1.80 1.80 1.69 1.58 1.52 1.58 1.70 1.69 1.85 1.91
1.83 1.82 1.84 1.83 1.80 1.78 1.75 1.66 1.61 1.57 1.52 1.47 1.43 1.42 1.32 1.26 1.16 1.03 0.99 0.97 1.00 1.05 1.08 1.17 1.26 1.28 1.27 1.25 1.27 1.33 1.39 1.49 1.54 1.61 1.58 1.53 1.49 1.54 1.59 1.60 1.69 1.83 2.00
1.75 1.70 1.70 1.72 1.72 1.71 1.59 1.49 1.48 1.41 1.31 1.24 1.21 1.18 1.13 1.09 1.06 1.04 0.98 0.96 0.94 0.97 1.06 1.20 1.40 1.47 1.45 1.38 1.33 1.34 1.37 1.41 1.42 1.38 1.40 1.43 1.48 1.51 1.52 1.52 1.66 1.76 1.88
1.57 1.53 1.53 1.60 1.62 1.54 1.50 1.37 1.27 1.18 1.19 1.14 1.11 1.13 1.10 1.09 1.01 0.89 0.90 0.93 0.96 1.09 1.13 1.32 1.45 1.51 1.51 1.37 1.30 1.25 1.24 1.25 1.23 1.23 1.28 1.36 1.42 1.42 1.43 1.48 1.60 1.73 1.83
1.44 1.42 1.34 1.33 1.42 1.42 1.38 1.33 1.34 1.15 1.05 1.03 1.02 1.06 1.10 1.08 1.00 0.94 0.91 0.98 1.01 1.07 1.10 1.22 1.36 1.45 1.50 1.34 1.25 1.26 1.25 1.24 1.24 1.26 1.29 1.32 1.37 1.40 1.44 1.51 1.58 1.68 1.76
1.32 1.28 1.25 1.28 1.26 1.25 1.26 1.18 1.16 1.22 1.23 1.16 1.09 1.09 1.05 1.04 0.99 0.97 0.98 1.07 1.11 1.11 1.16 1.19 1.28 1.39 1.42 1.37 1.29 1.29 1.28 1.29 1.30 1.32 1.32 1.35 1.39 1.43 1.40 1.41 1.48 1.52 1.60
1.17 1.15 1.16 1.17 1.20 1.22 1.21 1.13 1.05 1.07 1.13 1.18 1.18 1.11 1.08 1.09 1.06 1.02 1.01 1.00 1.04 1.09 1.12 1.13 1.16 1.25 1.32 1.38 1.40 1.37 1.30 1.28 1.29 1.33 1.35 1.38 1.40 1.40 1.39 1.34 1.37 1.42 1.47
1.10 1.06 1.04 1.08 1.13 1.17 1.18 1.14 1.12 1.10 1.07 1.14 1.16 1.07 1.03 1.06 1.08 1.08 1.03 1.00 1.07 1.10 1.10 1.12 1.14 1.16 1.21 1.27 1.33 1.32 1.27 1.21 1.20 1.28 1.37 1.42 1.43 1.42 1.35 1.28 1.32 1.42 1.50
0.93 0.89 0.87 0.86 0.95 1.00 1.01 1.03 1.05 1.03 1.06 1.10 1.03 1.00 1.05 1.04 1.09 1.06 1.02 1.00 1.11 1.20 1.21 1.18 1.13 1.14 1.15 1.15 1.18 1.22 1.23 1.17 1.17 1.23 1.33 1.39 1.37 1.35 1.31 1.25 1.22 1.25 1.30
0.87 0.83 0.75 0.76 0.84 0.89 0.89 0.88 0.86 0.90 0.92 0.92 0.88 0.88 0.98 0.96 1.01 1.02 1.02 1.02 1.06 1.13 1.20 1.21 1.17 1.12 1.10 1.11 1.10 1.10 1.12 1.14 1.15 1.18 1.22 1.25 1.24 1.24 1.25 1.21 1.17 1.18 1.23
0.82 0.82 0.80 0.80 0.88 0.94 0.89 0.85 0.80 0.78 0.83 0.88 0.87 0.81 0.82 0.90 0.96 1.03 1.04 1.04 1.07 1.09 1.11 1.13 1.13 1.07 1.03 1.01 0.99 0.97 1.00 1.05 1.00 1.00 1.07 1.09 1.10 1.12 1.15 1.17 1.15 1.20 1.24
0.80 0.83 0.81 0.77 0.83 0.90 0.89 0.83 0.77 0.74 0.81 0.88 0.89 0.88 0.86 0.89 0.94 1.01 1.05 1.07 1.05 1.03 1.01 1.02 0.99 0.97 0.97 0.98 0.97 0.91 0.89 0.92 0.87 0.84 0.91 0.97 1.01 1.05 1.10 1.15 1.19 1.19 1.24
0.75 0.77 0.76 0.74 0.77 0.84 0.83 0.78 0.78 0.78 0.76 0.84 0.89 0.91 0.87 0.87 0.93 1.00 1.06 1.09 1.07 1.02 0.96 0.95 0.92 0.91 0.91 0.90 0.87 0.85 0.88 0.89 0.87 0.85 0.88 0.95 0.98 1.03 1.10 1.15 1.19 1.17 1.19
0.72 0.76 0.74 0.77 0.79 0.75 0.74 0.75 0.76 0.77 0.76 0.77 0.79 0.85 0.87 0.89 0.90 0.90 0.89 0.95 1.01 0.99 0.91 0.85 0.81 0.81 0.82 0.80 0.79 0.86 0.84 0.77 0.79 0.89 0.91 0.94 1.00 1.03 1.08 1.12 1.13 1.14 1.16